Year,Month,Day,Hour,Minute,Value (Times are PST for temperature in C)
2018,09,17,00,00,10.30
2018,09,17,00,01,10.30
2018,09,17,00,02,10.20
2018,09,17,00,03,10.20
2018,09,17,00,04,10.20
2018,09,17,00,05,10.10
2018,09,17,00,06,10.10
2018,09,17,00,07,10.10
2018,09,17,00,08,10.10
2018,09,17,00,09,10.10
2018,09,17,00,10,10.10
2018,09,17,00,11,10.10
2018,09,17,00,12,10.10
2018,09,17,00,13,10.10
2018,09,17,00,14,10.20
2018,09,17,00,15,10.20
2018,09,17,00,16,10.20
2018,09,17,00,17,10.30
2018,09,17,00,18,10.30
2018,09,17,00,19,10.30
2018,09,17,00,20,10.30
2018,09,17,00,21,10.30
2018,09,17,00,22,10.30
2018,09,17,00,23,10.30
2018,09,17,00,24,10.30
2018,09,17,00,25,10.30
2018,09,17,00,26,10.30
2018,09,17,00,27,10.30
2018,09,17,00,28,10.30
2018,09,17,00,29,10.30
2018,09,17,00,30,10.30
2018,09,17,00,31,10.30
2018,09,17,00,32,10.30
2018,09,17,00,33,10.30
2018,09,17,00,34,10.30
2018,09,17,00,35,10.40
2018,09,17,00,36,10.40
2018,09,17,00,37,10.40
2018,09,17,00,38,10.40
2018,09,17,00,39,10.40
2018,09,17,00,40,10.40
2018,09,17,00,41,10.40
2018,09,17,00,42,10.50
2018,09,17,00,43,10.60
2018,09,17,00,44,10.60
2018,09,17,00,45,10.60
2018,09,17,00,46,10.60
2018,09,17,00,47,10.60
2018,09,17,00,48,10.60
2018,09,17,00,49,10.60
2018,09,17,00,50,10.60
2018,09,17,00,51,10.60
2018,09,17,00,52,10.50
2018,09,17,00,53,10.40
2018,09,17,00,54,10.40
2018,09,17,00,55,10.40
2018,09,17,00,56,10.30
2018,09,17,00,57,10.30
2018,09,17,00,58,10.20
2018,09,17,00,59,10.10
2018,09,17,01,00,10.10
2018,09,17,01,01,10.00
2018,09,17,01,02,9.90
2018,09,17,01,03,9.90
2018,09,17,01,04,9.80
2018,09,17,01,05,9.80
2018,09,17,01,06,9.80
2018,09,17,01,07,9.70
2018,09,17,01,08,9.70
2018,09,17,01,09,9.70
2018,09,17,01,10,9.60
2018,09,17,01,11,9.60
2018,09,17,01,12,9.50
2018,09,17,01,13,9.40
2018,09,17,01,14,9.40
2018,09,17,01,15,9.30
2018,09,17,01,16,9.20
2018,09,17,01,17,9.20
2018,09,17,01,18,9.10
2018,09,17,01,19,9.10
2018,09,17,01,20,9.10
2018,09,17,01,21,9.10
2018,09,17,01,22,9.00
2018,09,17,01,23,9.10
2018,09,17,01,24,9.10
2018,09,17,01,25,9.10
2018,09,17,01,26,9.10
2018,09,17,01,27,9.10
2018,09,17,01,28,9.10
2018,09,17,01,29,9.10
2018,09,17,01,30,9.10
2018,09,17,01,31,9.10
2018,09,17,01,32,9.20
2018,09,17,01,33,9.20
2018,09,17,01,34,9.20
2018,09,17,01,35,9.20
2018,09,17,01,36,9.20
2018,09,17,01,37,9.20
2018,09,17,01,38,9.20
2018,09,17,01,39,9.20
2018,09,17,01,40,9.20
2018,09,17,01,41,9.20
2018,09,17,01,42,9.20
2018,09,17,01,43,9.20
2018,09,17,01,44,9.20
2018,09,17,01,45,9.20
2018,09,17,01,46,9.20
2018,09,17,01,47,9.20
2018,09,17,01,48,9.20
2018,09,17,01,49,9.20
2018,09,17,01,50,9.20
2018,09,17,01,51,9.20
2018,09,17,01,52,9.20
2018,09,17,01,53,9.20
2018,09,17,01,54,9.20
2018,09,17,01,55,9.10
2018,09,17,01,56,9.10
2018,09,17,01,57,9.10
2018,09,17,01,58,9.20
2018,09,17,01,59,9.20
2018,09,17,02,00,9.20
2018,09,17,02,01,9.30
2018,09,17,02,02,9.40
2018,09,17,02,03,9.40
2018,09,17,02,04,9.50
2018,09,17,02,05,9.50
2018,09,17,02,06,9.50
2018,09,17,02,07,9.60
2018,09,17,02,08,9.60
2018,09,17,02,09,9.60
2018,09,17,02,10,9.60
2018,09,17,02,11,9.70
2018,09,17,02,12,9.70
2018,09,17,02,13,9.60
2018,09,17,02,14,9.60
2018,09,17,02,15,9.60
2018,09,17,02,16,9.50
2018,09,17,02,17,9.50
2018,09,17,02,18,9.50
2018,09,17,02,19,9.40
2018,09,17,02,20,9.40
2018,09,17,02,21,9.30
2018,09,17,02,22,9.30
2018,09,17,02,23,9.20
2018,09,17,02,24,9.20
2018,09,17,02,25,9.10
2018,09,17,02,26,9.00
2018,09,17,02,27,8.90
2018,09,17,02,28,8.80
2018,09,17,02,29,8.80
2018,09,17,02,30,8.70
2018,09,17,02,31,8.70
2018,09,17,02,32,8.60
2018,09,17,02,33,8.50
2018,09,17,02,34,8.50
2018,09,17,02,35,8.40
2018,09,17,02,36,8.40
2018,09,17,02,37,8.40
2018,09,17,02,38,8.40
2018,09,17,02,39,8.40
2018,09,17,02,40,8.40
2018,09,17,02,41,8.50
2018,09,17,02,42,8.50
2018,09,17,02,43,8.50
2018,09,17,02,44,8.50
2018,09,17,02,45,8.60
2018,09,17,02,46,8.60
2018,09,17,02,47,8.60
2018,09,17,02,48,8.60
2018,09,17,02,49,8.50
2018,09,17,02,50,8.50
2018,09,17,02,51,8.40
2018,09,17,02,52,8.40
2018,09,17,02,53,8.40
2018,09,17,02,54,8.30
2018,09,17,02,55,8.30
2018,09,17,02,56,8.30
2018,09,17,02,57,8.30
2018,09,17,02,58,8.20
2018,09,17,02,59,8.20
2018,09,17,03,00,8.20
2018,09,17,03,01,8.20
2018,09,17,03,02,8.20
2018,09,17,03,03,8.20
2018,09,17,03,04,8.30
2018,09,17,03,05,8.30
2018,09,17,03,06,8.30
2018,09,17,03,07,8.30
2018,09,17,03,08,8.30
2018,09,17,03,09,8.30
2018,09,17,03,10,8.30
2018,09,17,03,11,8.20
2018,09,17,03,12,8.20
2018,09,17,03,13,8.20
2018,09,17,03,14,8.20
2018,09,17,03,15,8.20
2018,09,17,03,16,8.20
2018,09,17,03,17,8.20
2018,09,17,03,18,8.20
2018,09,17,03,19,8.20
2018,09,17,03,20,8.20
2018,09,17,03,21,8.20
2018,09,17,03,22,8.20
2018,09,17,03,23,8.20
2018,09,17,03,24,8.20
2018,09,17,03,25,8.20
2018,09,17,03,26,8.20
2018,09,17,03,27,8.20
2018,09,17,03,28,8.20
2018,09,17,03,29,8.20
2018,09,17,03,30,8.20
2018,09,17,03,31,8.20
2018,09,17,03,32,8.20
2018,09,17,03,33,8.20
2018,09,17,03,34,8.10
2018,09,17,03,35,8.10
2018,09,17,03,36,8.00
2018,09,17,03,37,8.00
2018,09,17,03,38,8.00
2018,09,17,03,39,8.00
2018,09,17,03,40,8.00
2018,09,17,03,41,8.10
2018,09,17,03,42,8.20
2018,09,17,03,43,8.20
2018,09,17,03,44,8.20
2018,09,17,03,45,8.20
2018,09,17,03,46,8.20
2018,09,17,03,47,8.20
2018,09,17,03,48,8.20
2018,09,17,03,49,8.20
2018,09,17,03,50,8.20
2018,09,17,03,51,8.20
2018,09,17,03,52,8.20
2018,09,17,03,53,8.10
2018,09,17,03,54,8.00
2018,09,17,03,55,8.00
2018,09,17,03,56,7.90
2018,09,17,03,57,7.80
2018,09,17,03,58,7.80
2018,09,17,03,59,7.70
2018,09,17,04,00,7.70
2018,09,17,04,01,7.70
2018,09,17,04,02,7.70
2018,09,17,04,03,7.80
2018,09,17,04,04,7.80
2018,09,17,04,05,7.80
2018,09,17,04,06,7.80
2018,09,17,04,07,7.80
2018,09,17,04,08,7.80
2018,09,17,04,09,7.80
2018,09,17,04,10,7.90
2018,09,17,04,11,7.90
2018,09,17,04,12,8.00
2018,09,17,04,13,8.00
2018,09,17,04,14,8.00
2018,09,17,04,15,8.00
2018,09,17,04,16,8.00
2018,09,17,04,17,8.00
2018,09,17,04,18,8.00
2018,09,17,04,19,8.00
2018,09,17,04,20,8.00
2018,09,17,04,21,8.00
2018,09,17,04,22,8.00
2018,09,17,04,23,8.00
2018,09,17,04,24,7.90
2018,09,17,04,25,7.80
2018,09,17,04,26,7.70
2018,09,17,04,27,7.60
2018,09,17,04,28,7.50
2018,09,17,04,29,7.40
2018,09,17,04,30,7.30
2018,09,17,04,31,7.30
2018,09,17,04,32,7.20
2018,09,17,04,33,7.10
2018,09,17,04,34,7.00
2018,09,17,04,35,7.00
2018,09,17,04,36,7.00
2018,09,17,04,37,7.00
2018,09,17,04,38,7.00
2018,09,17,04,39,7.10
2018,09,17,04,40,7.10
2018,09,17,04,41,7.20
2018,09,17,04,42,7.30
2018,09,17,04,43,7.50
2018,09,17,04,44,7.60
2018,09,17,04,45,7.70
2018,09,17,04,46,7.80
2018,09,17,04,47,7.80
2018,09,17,04,48,7.90
2018,09,17,04,49,7.90
2018,09,17,04,50,7.80
2018,09,17,04,51,7.70
2018,09,17,04,52,7.60
2018,09,17,04,53,7.50
2018,09,17,04,54,7.40
2018,09,17,04,55,7.30
2018,09,17,04,56,7.30
2018,09,17,04,57,7.20
2018,09,17,04,58,7.10
2018,09,17,04,59,7.00
2018,09,17,05,00,7.00
2018,09,17,05,01,6.90
2018,09,17,05,02,6.90
2018,09,17,05,03,6.90
2018,09,17,05,04,6.90
2018,09,17,05,05,6.90
2018,09,17,05,06,6.90
2018,09,17,05,07,6.90
2018,09,17,05,08,6.90
2018,09,17,05,09,6.90
2018,09,17,05,10,6.90
2018,09,17,05,11,6.90
2018,09,17,05,12,6.90
2018,09,17,05,13,6.80
2018,09,17,05,14,6.80
2018,09,17,05,15,6.80
2018,09,17,05,16,6.80
2018,09,17,05,17,6.80
2018,09,17,05,18,6.80
2018,09,17,05,19,6.80
2018,09,17,05,20,6.80
2018,09,17,05,21,6.70
2018,09,17,05,22,6.70
2018,09,17,05,23,6.60
2018,09,17,05,24,6.40
2018,09,17,05,25,6.40
2018,09,17,05,26,6.30
2018,09,17,05,27,6.30
2018,09,17,05,28,6.20
2018,09,17,05,29,6.20
2018,09,17,05,30,6.20
2018,09,17,05,31,6.20
2018,09,17,05,32,6.20
2018,09,17,05,33,6.20
2018,09,17,05,34,6.20
2018,09,17,05,35,6.20
2018,09,17,05,36,6.20
2018,09,17,05,37,6.20
2018,09,17,05,38,6.20
2018,09,17,05,39,6.20
2018,09,17,05,40,6.20
2018,09,17,05,41,6.20
2018,09,17,05,42,6.20
2018,09,17,05,43,6.10
2018,09,17,05,44,6.10
2018,09,17,05,45,6.10
2018,09,17,05,46,6.10
2018,09,17,05,47,6.10
2018,09,17,05,48,6.10
2018,09,17,05,49,6.10
2018,09,17,05,50,6.20
2018,09,17,05,51,6.20
2018,09,17,05,52,6.20
2018,09,17,05,53,6.20
2018,09,17,05,54,6.30
2018,09,17,05,55,6.40
2018,09,17,05,56,6.40
2018,09,17,05,57,6.50
2018,09,17,05,58,6.60
2018,09,17,05,59,6.60
2018,09,17,06,00,6.60
2018,09,17,06,01,6.60
2018,09,17,06,02,6.60
2018,09,17,06,03,6.60
2018,09,17,06,04,6.40
2018,09,17,06,05,6.40
2018,09,17,06,06,6.40
2018,09,17,06,07,6.40
2018,09,17,06,08,6.40
2018,09,17,06,09,6.50
2018,09,17,06,10,6.60
2018,09,17,06,11,6.60
2018,09,17,06,12,6.60
2018,09,17,06,13,6.60
2018,09,17,06,14,6.60
2018,09,17,06,15,6.40
2018,09,17,06,16,6.30
2018,09,17,06,17,6.20
2018,09,17,06,18,6.20
2018,09,17,06,19,6.10
2018,09,17,06,20,6.00
2018,09,17,06,21,6.00
2018,09,17,06,22,5.90
2018,09,17,06,23,5.90
2018,09,17,06,24,5.80
2018,09,17,06,25,5.80
2018,09,17,06,26,5.70
2018,09,17,06,27,5.70
2018,09,17,06,28,5.70
2018,09,17,06,29,5.70
2018,09,17,06,30,5.70
2018,09,17,06,31,5.70
2018,09,17,06,32,5.70
2018,09,17,06,33,5.70
2018,09,17,06,34,5.60
2018,09,17,06,35,5.60
2018,09,17,06,36,5.60
2018,09,17,06,37,5.50
2018,09,17,06,38,5.50
2018,09,17,06,39,5.50
2018,09,17,06,40,5.50
2018,09,17,06,41,5.50
2018,09,17,06,42,5.60
2018,09,17,06,43,5.70
2018,09,17,06,44,5.70
2018,09,17,06,45,5.70
2018,09,17,06,46,5.80
2018,09,17,06,47,5.80
2018,09,17,06,48,5.80
2018,09,17,06,49,5.80
2018,09,17,06,50,5.80
2018,09,17,06,51,5.80
2018,09,17,06,52,5.70
2018,09,17,06,53,5.70
2018,09,17,06,54,5.70
2018,09,17,06,55,5.70
2018,09,17,06,56,5.80
2018,09,17,06,57,5.80
2018,09,17,06,58,5.90
2018,09,17,06,59,5.90
2018,09,17,07,00,6.00
2018,09,17,07,01,6.00
2018,09,17,07,02,6.00
2018,09,17,07,03,6.00
2018,09,17,07,04,5.90
2018,09,17,07,05,5.90
2018,09,17,07,06,5.90
2018,09,17,07,07,5.90
2018,09,17,07,08,5.90
2018,09,17,07,09,5.90
2018,09,17,07,10,5.90
2018,09,17,07,11,5.90
2018,09,17,07,12,5.90
2018,09,17,07,13,6.00
2018,09,17,07,14,5.90
2018,09,17,07,15,5.90
2018,09,17,07,16,5.90
2018,09,17,07,17,5.90
2018,09,17,07,18,5.90
2018,09,17,07,19,5.90
2018,09,17,07,20,5.90
2018,09,17,07,21,6.00
2018,09,17,07,22,6.00
2018,09,17,07,23,6.00
2018,09,17,07,24,6.10
2018,09,17,07,25,6.10
2018,09,17,07,26,6.20
2018,09,17,07,27,6.20
2018,09,17,07,28,6.30
2018,09,17,07,29,6.40
2018,09,17,07,30,6.40
2018,09,17,07,31,6.40
2018,09,17,07,32,6.40
2018,09,17,07,33,6.40
2018,09,17,07,34,6.40
2018,09,17,07,35,6.40
2018,09,17,07,36,6.40
2018,09,17,07,37,6.40
2018,09,17,07,38,6.50
2018,09,17,07,39,6.60
2018,09,17,07,40,6.60
2018,09,17,07,41,6.60
2018,09,17,07,42,6.60
2018,09,17,07,43,6.60
2018,09,17,07,44,6.60
2018,09,17,07,45,6.60
2018,09,17,07,46,6.60
2018,09,17,07,47,6.70
2018,09,17,07,48,6.70
2018,09,17,07,49,6.80
2018,09,17,07,50,6.80
2018,09,17,07,51,6.80
2018,09,17,07,52,6.90
2018,09,17,07,53,7.00
2018,09,17,07,54,7.10
2018,09,17,07,55,7.20
2018,09,17,07,56,7.20
2018,09,17,07,57,7.30
2018,09,17,07,58,7.30
2018,09,17,07,59,7.30
2018,09,17,08,00,7.40
2018,09,17,08,01,7.50
2018,09,17,08,02,7.50
2018,09,17,08,03,7.60
2018,09,17,08,04,7.60
2018,09,17,08,05,7.70
2018,09,17,08,06,7.80
2018,09,17,08,07,7.80
2018,09,17,08,08,7.80
2018,09,17,08,09,7.90
2018,09,17,08,10,7.90
2018,09,17,08,11,8.00
2018,09,17,08,12,8.00
2018,09,17,08,13,8.00
2018,09,17,08,14,8.10
2018,09,17,08,15,8.10
2018,09,17,08,16,8.10
2018,09,17,08,17,8.20
2018,09,17,08,18,8.20
2018,09,17,08,19,8.20
2018,09,17,08,20,8.20
2018,09,17,08,21,8.30
2018,09,17,08,22,8.30
2018,09,17,08,23,8.40
2018,09,17,08,24,8.50
2018,09,17,08,25,8.60
2018,09,17,08,26,8.70
2018,09,17,08,27,8.90
2018,09,17,08,28,9.00
2018,09,17,08,29,9.00
2018,09,17,08,30,9.10
2018,09,17,08,31,9.10
2018,09,17,08,32,9.20
2018,09,17,08,33,9.20
2018,09,17,08,34,9.30
2018,09,17,08,35,9.40
2018,09,17,08,36,9.50
2018,09,17,08,37,9.50
2018,09,17,08,38,9.60
2018,09,17,08,39,9.70
2018,09,17,08,40,9.70
2018,09,17,08,41,9.80
2018,09,17,08,42,9.90
2018,09,17,08,43,9.90
2018,09,17,08,44,10.10
2018,09,17,08,45,10.20
2018,09,17,08,46,10.30
2018,09,17,08,47,10.40
2018,09,17,08,48,10.40
2018,09,17,08,49,10.60
2018,09,17,08,50,10.60
2018,09,17,08,51,10.60
2018,09,17,08,52,10.70
2018,09,17,08,53,10.80
2018,09,17,08,54,10.90
2018,09,17,08,55,10.90
2018,09,17,08,56,11.00
2018,09,17,08,57,11.10
2018,09,17,08,58,11.20
2018,09,17,08,59,11.30
2018,09,17,09,00,11.30
2018,09,17,09,01,11.40
2018,09,17,09,02,11.40
2018,09,17,09,03,11.40
2018,09,17,09,04,11.40
2018,09,17,09,05,11.50
2018,09,17,09,06,11.60
2018,09,17,09,07,11.70
2018,09,17,09,08,11.80
2018,09,17,09,09,11.90
2018,09,17,09,10,12.00
2018,09,17,09,11,12.10
2018,09,17,09,12,12.20
2018,09,17,09,13,12.30
2018,09,17,09,14,12.30
2018,09,17,09,15,12.40
2018,09,17,09,16,12.40
2018,09,17,09,17,12.50
2018,09,17,09,18,12.50
2018,09,17,09,19,12.60
2018,09,17,09,20,12.70
2018,09,17,09,21,12.70
2018,09,17,09,22,12.80
2018,09,17,09,23,12.80
2018,09,17,09,24,12.80
2018,09,17,09,25,12.90
2018,09,17,09,26,12.90
2018,09,17,09,27,13.00
2018,09,17,09,28,13.10
2018,09,17,09,29,13.20
2018,09,17,09,30,13.30
2018,09,17,09,31,13.30
2018,09,17,09,32,13.40
2018,09,17,09,33,13.50
2018,09,17,09,34,13.60
2018,09,17,09,35,13.70
2018,09,17,09,36,13.80
2018,09,17,09,37,13.90
2018,09,17,09,38,14.00
2018,09,17,09,39,14.00
2018,09,17,09,40,14.10
2018,09,17,09,41,14.10
2018,09,17,09,42,14.10
2018,09,17,09,43,14.10
2018,09,17,09,44,14.00
2018,09,17,09,45,14.00
2018,09,17,09,46,14.00
2018,09,17,09,47,14.00
2018,09,17,09,48,14.10
2018,09,17,09,49,14.10
2018,09,17,09,50,14.20
2018,09,17,09,51,14.30
2018,09,17,09,52,14.40
2018,09,17,09,53,14.40
2018,09,17,09,54,14.40
2018,09,17,09,55,14.50
2018,09,17,09,56,14.50
2018,09,17,09,57,14.60
2018,09,17,09,58,14.60
2018,09,17,09,59,14.60
2018,09,17,10,00,14.60
2018,09,17,10,01,14.70
2018,09,17,10,02,14.70
2018,09,17,10,03,14.70
2018,09,17,10,04,14.80
2018,09,17,10,05,14.80
2018,09,17,10,06,14.80
2018,09,17,10,07,14.80
2018,09,17,10,08,14.90
2018,09,17,10,09,15.00
2018,09,17,10,10,15.10
2018,09,17,10,11,15.20
2018,09,17,10,12,15.30
2018,09,17,10,13,15.30
2018,09,17,10,14,15.40
2018,09,17,10,15,15.50
2018,09,17,10,16,15.50
2018,09,17,10,17,15.50
2018,09,17,10,18,15.50
2018,09,17,10,19,15.40
2018,09,17,10,20,15.40
2018,09,17,10,21,15.30
2018,09,17,10,22,15.30
2018,09,17,10,23,15.30
2018,09,17,10,24,15.30
2018,09,17,10,25,15.30
2018,09,17,10,26,15.30
2018,09,17,10,27,15.30
2018,09,17,10,28,15.30
2018,09,17,10,29,15.40
2018,09,17,10,30,15.50
2018,09,17,10,31,15.60
2018,09,17,10,32,15.70
2018,09,17,10,33,15.70
2018,09,17,10,34,15.70
2018,09,17,10,35,15.80
2018,09,17,10,36,15.80
2018,09,17,10,37,15.80
2018,09,17,10,38,15.90
2018,09,17,10,39,15.90
2018,09,17,10,40,15.90
2018,09,17,10,41,15.90
2018,09,17,10,42,16.00
2018,09,17,10,43,16.10
2018,09,17,10,44,16.00
2018,09,17,10,45,15.90
2018,09,17,10,46,15.90
2018,09,17,10,47,15.90
2018,09,17,10,48,15.90
2018,09,17,10,49,15.90
2018,09,17,10,50,15.90
2018,09,17,10,51,15.90
2018,09,17,10,52,15.90
2018,09,17,10,53,15.90
2018,09,17,10,54,15.90
2018,09,17,10,55,15.90
2018,09,17,10,56,15.90
2018,09,17,10,57,15.90
2018,09,17,10,58,15.80
2018,09,17,10,59,15.80
2018,09,17,11,00,15.80
2018,09,17,11,01,15.80
2018,09,17,11,02,15.80
2018,09,17,11,03,15.80
2018,09,17,11,04,15.80
2018,09,17,11,05,15.80
2018,09,17,11,06,15.80
2018,09,17,11,07,15.70
2018,09,17,11,08,15.70
2018,09,17,11,09,15.70
2018,09,17,11,10,15.70
2018,09,17,11,11,15.70
2018,09,17,11,12,15.80
2018,09,17,11,13,15.90
2018,09,17,11,14,16.10
2018,09,17,11,15,16.10
2018,09,17,11,16,16.20
2018,09,17,11,17,16.20
2018,09,17,11,18,16.20
2018,09,17,11,19,16.20
2018,09,17,11,20,16.20
2018,09,17,11,21,16.20
2018,09,17,11,22,16.30
2018,09,17,11,23,16.30
2018,09,17,11,24,16.20
2018,09,17,11,25,16.10
2018,09,17,11,26,16.10
2018,09,17,11,27,16.10
2018,09,17,11,28,16.00
2018,09,17,11,29,15.90
2018,09,17,11,30,15.80
2018,09,17,11,31,15.70
2018,09,17,11,32,15.60
2018,09,17,11,33,15.60
2018,09,17,11,34,15.60
2018,09,17,11,35,15.50
2018,09,17,11,36,15.50
2018,09,17,11,37,15.50
2018,09,17,11,38,15.50
2018,09,17,11,39,15.50
2018,09,17,11,40,15.30
2018,09,17,11,41,15.20
2018,09,17,11,42,15.10
2018,09,17,11,43,15.10
2018,09,17,11,44,15.10
2018,09,17,11,45,15.10
2018,09,17,11,46,15.20
2018,09,17,11,47,15.20
2018,09,17,11,48,15.20
2018,09,17,11,49,15.20
2018,09,17,11,50,15.10
2018,09,17,11,51,15.00
2018,09,17,11,52,15.00
2018,09,17,11,53,14.90
2018,09,17,11,54,14.90
2018,09,17,11,55,14.90
2018,09,17,11,56,14.90
2018,09,17,11,57,14.90
2018,09,17,11,58,14.90
2018,09,17,11,59,14.90
2018,09,17,12,00,14.90
2018,09,17,12,01,15.00
2018,09,17,12,02,15.00
2018,09,17,12,03,15.00
2018,09,17,12,04,15.10
2018,09,17,12,05,15.10
2018,09,17,12,06,15.10
2018,09,17,12,07,15.10
2018,09,17,12,08,15.10
2018,09,17,12,09,15.10
2018,09,17,12,10,15.10
2018,09,17,12,11,15.10
2018,09,17,12,12,15.10
2018,09,17,12,13,15.20
2018,09,17,12,14,15.20
2018,09,17,12,15,15.30
2018,09,17,12,16,15.30
2018,09,17,12,17,15.30
2018,09,17,12,18,15.30
2018,09,17,12,19,15.30
2018,09,17,12,20,15.30
2018,09,17,12,21,15.40
2018,09,17,12,22,15.50
2018,09,17,12,23,15.60
2018,09,17,12,24,15.70
2018,09,17,12,25,15.80
2018,09,17,12,26,15.80
2018,09,17,12,27,15.90
2018,09,17,12,28,16.00
2018,09,17,12,29,16.10
2018,09,17,12,30,16.30
2018,09,17,12,31,16.50
2018,09,17,12,32,16.60
2018,09,17,12,33,16.70
2018,09,17,12,34,16.80
2018,09,17,12,35,16.90
2018,09,17,12,36,16.90
2018,09,17,12,37,16.80
2018,09,17,12,38,16.70
2018,09,17,12,39,16.60
2018,09,17,12,40,16.40
2018,09,17,12,41,16.40
2018,09,17,12,42,16.40
2018,09,17,12,43,16.40
2018,09,17,12,44,16.30
2018,09,17,12,45,16.30
2018,09,17,12,46,16.40
2018,09,17,12,47,16.50
2018,09,17,12,48,16.50
2018,09,17,12,49,16.40
2018,09,17,12,50,16.40
2018,09,17,12,51,16.40
2018,09,17,12,52,16.40
2018,09,17,12,53,16.40
2018,09,17,12,54,16.40
2018,09,17,12,55,16.40
2018,09,17,12,56,16.30
2018,09,17,12,57,16.30
2018,09,17,12,58,16.30
2018,09,17,12,59,16.40
2018,09,17,13,00,16.40
2018,09,17,13,01,16.40
2018,09,17,13,02,16.40
2018,09,17,13,03,16.40
2018,09,17,13,04,16.20
2018,09,17,13,05,16.10
2018,09,17,13,06,16.10
2018,09,17,13,07,16.00
2018,09,17,13,08,15.90
2018,09,17,13,09,15.90
2018,09,17,13,10,15.90
2018,09,17,13,11,15.90
2018,09,17,13,12,15.90
2018,09,17,13,13,16.00
2018,09,17,13,14,16.00
2018,09,17,13,15,15.90
2018,09,17,13,16,15.90
2018,09,17,13,17,15.90
2018,09,17,13,18,15.80
2018,09,17,13,19,15.80
2018,09,17,13,20,15.80
2018,09,17,13,21,15.80
2018,09,17,13,22,15.80
2018,09,17,13,23,15.90
2018,09,17,13,24,16.00
2018,09,17,13,25,16.20
2018,09,17,13,26,16.30
2018,09,17,13,27,16.40
2018,09,17,13,28,16.50
2018,09,17,13,29,16.60
2018,09,17,13,30,16.60
2018,09,17,13,31,16.60
2018,09,17,13,32,16.70
2018,09,17,13,33,16.60
2018,09,17,13,34,16.50
2018,09,17,13,35,16.40
2018,09,17,13,36,16.40
2018,09,17,13,37,16.40
2018,09,17,13,38,16.40
2018,09,17,13,39,16.40
2018,09,17,13,40,16.40
2018,09,17,13,41,16.40
2018,09,17,13,42,16.40
2018,09,17,13,43,16.40
2018,09,17,13,44,16.40
2018,09,17,13,45,16.40
2018,09,17,13,46,16.40
2018,09,17,13,47,16.50
2018,09,17,13,48,16.40
2018,09,17,13,49,16.50
2018,09,17,13,50,16.50
2018,09,17,13,51,16.60
2018,09,17,13,52,16.60
2018,09,17,13,53,16.50
2018,09,17,13,54,16.40
2018,09,17,13,55,16.40
2018,09,17,13,56,16.40
2018,09,17,13,57,16.40
2018,09,17,13,58,16.50
2018,09,17,13,59,16.60
2018,09,17,14,00,16.70
2018,09,17,14,01,16.70
2018,09,17,14,02,16.90
2018,09,17,14,03,16.90
2018,09,17,14,04,16.80
2018,09,17,14,05,16.70
2018,09,17,14,06,16.80
2018,09,17,14,07,16.90
2018,09,17,14,08,16.80
2018,09,17,14,09,17.00
2018,09,17,14,10,17.20
2018,09,17,14,11,17.30
2018,09,17,14,12,17.30
2018,09,17,14,13,17.30
2018,09,17,14,14,17.30
2018,09,17,14,15,17.30
2018,09,17,14,16,17.20
2018,09,17,14,17,17.30
2018,09,17,14,18,17.20
2018,09,17,14,19,17.10
2018,09,17,14,20,17.10
2018,09,17,14,21,17.00
2018,09,17,14,22,17.00
2018,09,17,14,23,17.00
2018,09,17,14,24,16.90
2018,09,17,14,25,16.80
2018,09,17,14,26,16.90
2018,09,17,14,27,16.90
2018,09,17,14,28,16.90
2018,09,17,14,29,17.00
2018,09,17,14,30,17.10
2018,09,17,14,31,17.20
2018,09,17,14,32,17.30
2018,09,17,14,33,17.40
2018,09,17,14,34,17.30
2018,09,17,14,35,17.30
2018,09,17,14,36,17.00
2018,09,17,14,37,16.90
2018,09,17,14,38,16.70
2018,09,17,14,39,16.70
2018,09,17,14,40,16.60
2018,09,17,14,41,16.60
2018,09,17,14,42,16.60
2018,09,17,14,43,16.70
2018,09,17,14,44,16.70
2018,09,17,14,45,16.70
2018,09,17,14,46,16.70
2018,09,17,14,47,16.90
2018,09,17,14,48,17.00
2018,09,17,14,49,17.10
2018,09,17,14,50,17.20
2018,09,17,14,51,17.30
2018,09,17,14,52,17.30
2018,09,17,14,53,17.40
2018,09,17,14,54,17.40
2018,09,17,14,55,17.20
2018,09,17,14,56,17.10
2018,09,17,14,57,17.10
2018,09,17,14,58,17.20
2018,09,17,14,59,17.20
2018,09,17,15,00,17.20
2018,09,17,15,01,17.20
2018,09,17,15,02,17.20
2018,09,17,15,03,17.30
2018,09,17,15,04,17.30
2018,09,17,15,05,17.40
2018,09,17,15,06,17.40
2018,09,17,15,07,17.40
2018,09,17,15,08,17.40
2018,09,17,15,09,17.30
2018,09,17,15,10,17.30
2018,09,17,15,11,17.20
2018,09,17,15,12,17.10
2018,09,17,15,13,17.10
2018,09,17,15,14,17.10
2018,09,17,15,15,17.10
2018,09,17,15,16,17.20
2018,09,17,15,17,17.20
2018,09,17,15,18,17.20
2018,09,17,15,19,17.20
2018,09,17,15,20,17.10
2018,09,17,15,21,17.00
2018,09,17,15,22,16.90
2018,09,17,15,23,16.90
2018,09,17,15,24,16.90
2018,09,17,15,25,16.90
2018,09,17,15,26,16.90
2018,09,17,15,27,17.00
2018,09,17,15,28,17.10
2018,09,17,15,29,17.20
2018,09,17,15,30,17.20
2018,09,17,15,31,17.20
2018,09,17,15,32,17.20
2018,09,17,15,33,17.20
2018,09,17,15,34,17.10
2018,09,17,15,35,17.00
2018,09,17,15,36,16.90
2018,09,17,15,37,16.90
2018,09,17,15,38,16.90
2018,09,17,15,39,16.90
2018,09,17,15,40,16.90
2018,09,17,15,41,17.00
2018,09,17,15,42,17.00
2018,09,17,15,43,17.10
2018,09,17,15,44,17.20
2018,09,17,15,45,17.20
2018,09,17,15,46,17.20
2018,09,17,15,47,17.20
2018,09,17,15,48,17.00
2018,09,17,15,49,16.90
2018,09,17,15,50,16.80
2018,09,17,15,51,16.70
2018,09,17,15,52,16.70
2018,09,17,15,53,16.70
2018,09,17,15,54,16.70
2018,09,17,15,55,16.70
2018,09,17,15,56,16.70
2018,09,17,15,57,16.70
2018,09,17,15,58,16.70
2018,09,17,15,59,16.70
2018,09,17,16,00,16.90
2018,09,17,16,01,16.90
2018,09,17,16,02,17.00
2018,09,17,16,03,17.00
2018,09,17,16,04,17.10
2018,09,17,16,05,17.10
2018,09,17,16,06,17.10
2018,09,17,16,07,17.00
2018,09,17,16,08,17.00
2018,09,17,16,09,17.00
2018,09,17,16,10,16.90
2018,09,17,16,11,16.80
2018,09,17,16,12,16.80
2018,09,17,16,13,16.70
2018,09,17,16,14,16.80
2018,09,17,16,15,16.80
2018,09,17,16,16,16.90
2018,09,17,16,17,16.90
2018,09,17,16,18,16.80
2018,09,17,16,19,16.70
2018,09,17,16,20,16.70
2018,09,17,16,21,16.70
2018,09,17,16,22,16.70
2018,09,17,16,23,16.70
2018,09,17,16,24,16.80
2018,09,17,16,25,16.90
2018,09,17,16,26,16.90
2018,09,17,16,27,16.90
2018,09,17,16,28,16.90
2018,09,17,16,29,16.90
2018,09,17,16,30,16.90
2018,09,17,16,31,16.80
2018,09,17,16,32,16.70
2018,09,17,16,33,16.60
2018,09,17,16,34,16.60
2018,09,17,16,35,16.60
2018,09,17,16,36,16.60
2018,09,17,16,37,16.50
2018,09,17,16,38,16.60
2018,09,17,16,39,16.50
2018,09,17,16,40,16.50
2018,09,17,16,41,16.60
2018,09,17,16,42,16.60
2018,09,17,16,43,16.60
2018,09,17,16,44,16.70
2018,09,17,16,45,16.70
2018,09,17,16,46,16.70
2018,09,17,16,47,16.70
2018,09,17,16,48,16.70
2018,09,17,16,49,16.70
2018,09,17,16,50,16.60
2018,09,17,16,51,16.60
2018,09,17,16,52,16.60
2018,09,17,16,53,16.70
2018,09,17,16,54,16.70
2018,09,17,16,55,16.70
2018,09,17,16,56,16.70
2018,09,17,16,57,16.60
2018,09,17,16,58,16.60
2018,09,17,16,59,16.60
2018,09,17,17,00,16.60
2018,09,17,17,01,16.60
2018,09,17,17,02,16.70
2018,09,17,17,03,16.70
2018,09,17,17,04,16.80
2018,09,17,17,05,16.80
2018,09,17,17,06,16.90
2018,09,17,17,07,16.90
2018,09,17,17,08,16.90
2018,09,17,17,09,16.90
2018,09,17,17,10,17.00
2018,09,17,17,11,17.00
2018,09,17,17,12,17.00
2018,09,17,17,13,17.00
2018,09,17,17,14,17.00
2018,09,17,17,15,17.10
2018,09,17,17,16,17.10
2018,09,17,17,17,17.10
2018,09,17,17,18,17.10
2018,09,17,17,19,17.10
2018,09,17,17,20,17.10
2018,09,17,17,21,17.10
2018,09,17,17,22,17.10
2018,09,17,17,23,17.20
2018,09,17,17,24,17.20
2018,09,17,17,25,17.30
2018,09,17,17,26,17.30
2018,09,17,17,27,17.30
2018,09,17,17,28,17.40
2018,09,17,17,29,17.40
2018,09,17,17,30,17.30
2018,09,17,17,31,17.20
2018,09,17,17,32,17.20
2018,09,17,17,33,17.20
2018,09,17,17,34,17.20
2018,09,17,17,35,17.20
2018,09,17,17,36,17.20
2018,09,17,17,37,17.20
2018,09,17,17,38,17.10
2018,09,17,17,39,17.10